Location: Cabeza de los Veneras
(40.2000°N, 5.2000°W)
Time: 13:37:48
(UTC+00:00)

Cosmos 2227 Rocket - Pass Details

Date: 18 April 2024
Orbit: 837 x 846 km, 71.0° (Epoch: 26 May)

Event Time Altitude Azimuth Distance (km) Brightness Sun altitude
Rises 20:03:32 0° 353° (N) 3,414 5.8 -11.6°
Reaches altitude 10° 20:08:12 10° 28° (NNE) 2,474 4.6 -12.4°
Maximum altitude 20:09:49 11° 45° (NE) 2,391 4.4 -12.7°
Drops below altitude 10° 20:11:26 10° 61° (ENE) 2,471 4.3 -13.0°
Enters shadow 20:12:44 - 73° (ENE) 2,644 4.4 -13.2°
